{"data":{"norad_id":49151,"intl_designator":"2021-082X","name":"STARLINK-3102","alt_names":[],"object_type":"PAYLOAD","status":"ACTIVE","operator":null,"country":"US","launch_date":"2021-09-14","launch_site_code":"AFWTR","launch_vehicle":null,"mission":null,"orbit_class":"UNKNOWN","rcs_meters":null,"size_class":null,"mass_kg":null,"dimensions":null,"purposes":["comms"],"wikipedia_slug":null,"has_3d_model":false,"image_url":null,"decayed_at":null,"tle_current":{"epoch":"2026-05-25T03:35:15.859104Z","epoch_age_seconds":58138,"freshness":"FRESH","line1":"1 49151U 21082X   26145.14948911  .00001154  00000+0  10451-3 0  9992","line2":"2 49151  70.0009  61.6681 0002761 267.9599  92.1244 14.98325797259619","mean_motion":14.98325797,"eccentricity":0.0002761,"inclination_deg":70.0009,"raan_deg":61.6681,"arg_perigee_deg":267.9599,"mean_anomaly_deg":92.1244,"bstar":0.00010451,"rev_number":25961,"period_min":96.107268718407,"perigee_km":570.1499365598,"apogee_km":573.98784025138,"semimajor_km":6950.2058884056,"source":"CELESTRAK","updated_at":"2026-05-25T13:38:16.788488Z"}}}